This is the latest recevied weather packets stored in our database for station/object VA3BOO. If no packets are shown the sender has not sent any weather packets the latest 10 day(s).
| Time | Temp. | Humidity | Pressure | Rain* | Wind** | Luminosity | Snow |
|---|---|---|---|---|---|---|---|
| 1777409404 | 13.33° C | 67% | 1013.2 hPa | 0 mm | - | 84 W/m² | - |
| 1777409104 | 13.33° C | 66% | 1013.3 hPa | 0 mm | - | 63 W/m² | - |
| 1777408804 | 13.33° C | 68% | 1013.4 hPa | 0 mm | - | 77 W/m² | - |
| 1777408504 | 13.33° C | 68% | 1013.3 hPa | 0 mm | - | 80 W/m² | - |
| 1777408204 | 13.33° C | 68% | 1013.6 hPa | 0 mm | - | 79 W/m² | - |
| 1777407904 | 13.89° C | 66% | 1013.7 hPa | 0 mm | - | 94 W/m² | - |
| 1777407604 | 13.89° C | 63% | 1013.6 hPa | 0 mm | - | 85 W/m² | - |
| 1777407304 | 13.89° C | 63% | 1013.4 hPa | 0 mm | - | 106 W/m² | - |
| 1777407004 | 13.89° C | 66% | 1013.6 hPa | 0 mm | - | 117 W/m² | - |
| 1777406704 | 13.89° C | 65% | 1013.8 hPa | 0 mm | - | 80 W/m² | - |
| 1777406404 | 14.44° C | 58% | 1014 hPa | 0 mm | - | 38 W/m² | - |
| 1777406104 | 14.44° C | 58% | 1014 hPa | 0 mm | - | 41 W/m² | - |
| 1777405804 | 15° C | 54% | 1013.8 hPa | 0 mm | - | 56 W/m² | - |
| 1777405504 | 15.56° C | 52% | 1014.2 hPa | 0 mm | - | 106 W/m² | - |
| 1777405204 | 16.11° C | 51% | 1013.9 hPa | 0 mm | - | 76 W/m² | - |
| 1777404904 | 16.11° C | 46% | 1013.9 hPa | 0 mm | - | 87 W/m² | - |
| 1777404604 | 16.11° C | 45% | 1013.9 hPa | 0 mm | - | 102 W/m² | - |
| 1777404304 | 16.11° C | 46% | 1013.8 hPa | 0 mm | - | 84 W/m² | - |
| 1777404004 | 16.11° C | 44% | 1014 hPa | 0 mm | - | 55 W/m² | - |
| 1777403704 | 16.67° C | 44% | 1014 hPa | 0 mm | - | 79 W/m² | - |
| 1777403404 | 16.11° C | 43% | 1014 hPa | 0 mm | - | 140 W/m² | - |
| 1777403104 | 16.11° C | 44% | 1014 hPa | 0 mm | - | 168 W/m² | - |
| 1777402804 | 16.11° C | 43% | 1014 hPa | 0 mm | - | 161 W/m² | - |
| 1777402504 | 16.11° C | 43% | 1014.3 hPa | 0 mm | - | 96 W/m² | - |
| 1777402204 | 16.11° C | 44% | 1014.4 hPa | 0 mm | - | 88 W/m² | - |
* Rain latest hour (hover to see other rain measurements)
** Current wind speed in m/s (hover to see current wind gust speed)